• In Hungary
  • List of Countries
  • For 7 days
  • Water Temperature
  • Satellite Maps
  • Weather Map
  • News
  • Weather Widgets
  • user-avatar
    Login

    Hourly Weather Taraz

    Today, 14 November, Wednesday

    Time Temperature Precipitation Wind Pressure Humidity
    00:00 -9°C° 0 mm 1 mps 715 mmHg 71%
    01:00 -9°C° 0 mm 1 mps 715 mmHg 71%
    02:00 -10°C° 0 mm 1 mps 715 mmHg 70%
    03:00 -10°C° 0 mm 1 mps 715 mmHg 70%
    04:00 -10°C° 0 mm 1 mps 715 mmHg 69%
    05:00 -10°C° 0 mm 1 mps 715 mmHg 72%
    06:00 -10°C° 0 mm 1 mps 715 mmHg 71%
    07:00 -10°C° 0 mm 1 mps 715 mmHg 71%
    08:00 -10°C° 0 mm 1 mps 715 mmHg 70%
    09:00 -8°C° 0 mm 1 mps 715 mmHg 68%
    10:00 -7°C° 0 mm 1 mps 715 mmHg 66%
    11:00 -4°C° 0 mm 1 mps 715 mmHg 64%
    12:00 -4°C° 0 mm 1 mps 715 mmHg 65%
    13:00 -3°C° 0 mm 1 mps 715 mmHg 66%
    14:00 -3°C° 0 mm 1 mps 715 mmHg 67%
    15:00 -4°C° 0 mm 1 mps 715 mmHg 71%
    16:00 -6°C° 0 mm 1 mps 715 mmHg 75%
    17:00 -7°C° 0 mm 1 mps 715 mmHg 79%
    18:00 -7°C° 0 mm 1 mps 715 mmHg 77%
    19:00 -7°C° 0 mm 1 mps 716 mmHg 76%
    20:00 -7°C° 0 mm 1 mps 716 mmHg 74%
    21:00 -7°C° 0 mm 1 mps 716 mmHg 74%
    22:00 -7°C° 0 mm 1 mps 716 mmHg 73%
    23:00 -7°C° 0 mm 1 mps 716 mmHg 72%

    Tomorrow, 15 November, Thursday

    Time Temperature Precipitation Wind Pressure Humidity
    00:00 -7°C° 0 mm 1 mps 716 mmHg 72%
    01:00 -7°C° 0 mm 1 mps 716 mmHg 72%
    02:00 -7°C° 0 mm 1 mps 716 mmHg 71%
    03:00 -8°C° 0 mm 1 mps 716 mmHg 71%
    04:00 -8°C° 0 mm 1 mps 716 mmHg 71%
    05:00 -8°C° 0 mm 1 mps 716 mmHg 71%
    06:00 -7°C° 0 mm 1 mps 717 mmHg 70%
    07:00 -7°C° 0 mm 1 mps 717 mmHg 69%
    08:00 -7°C° 0 mm 1 mps 717 mmHg 68%
    09:00 -4°C° 0 mm 1 mps 717 mmHg 67%
    10:00 -3°C° 0 mm 1 mps 717 mmHg 65%
    11:00 -1°C° 0 mm 1 mps 717 mmHg 63%
    12:00 -2°C° 0 mm 2 mps 717 mmHg 65%
    13:00 -2°C° 0 mm 2 mps 717 mmHg 66%
    14:00 -1°C° 0 mm 2 mps 717 mmHg 67%
    15:00 -3°C° 0 mm 2 mps 717 mmHg 71%
    16:00 -2°C° 0 mm 1 mps 717 mmHg 75%
    17:00 -3°C° 0 mm 1 mps 717 mmHg 79%
    18:00 -4°C° 0 mm 1 mps 717 mmHg 77%
    19:00 -4°C° 0 mm 1 mps 717 mmHg 76%
    20:00 -4°C° 0 mm 1 mps 718 mmHg 74%
    21:00 -4°C° 0 mm 1 mps 718 mmHg 73%
    22:00 -4°C° 0 mm 1 mps 718 mmHg 72%
    23:00 -4°C° 0 mm 1 mps 718 mmHg 70%

    Day after tomorrow, 16 November, Friday

    Time Temperature Precipitation Wind Pressure Humidity
    00:00 -6°C° 0 mm 1 mps 718 mmHg 69%
    01:00 -6°C° 0 mm 1 mps 718 mmHg 68%
    02:00 -6°C° 0 mm 1 mps 718 mmHg 67%
    03:00 -6°C° 0 mm 1 mps 718 mmHg 65%
    04:00 -6°C° 0 mm 1 mps 718 mmHg 63%
    05:00 -6°C° 0 mm 1 mps 718 mmHg 61%
    06:00 -6°C° 0 mm 1 mps 718 mmHg 60%
    07:00 -4°C° 0 mm 1 mps 718 mmHg 59%
    08:00 -4°C° 0 mm 1 mps 718 mmHg 58%
    09:00 -2°C° 0 mm 1 mps 718 mmHg 57%
    10:00 -1°C° 0 mm 1 mps 718 mmHg 56%
    11:00 -1°C° 0 mm 2 mps 718 mmHg 55%
    12:00 +1°C° 0 mm 2 mps 717 mmHg 57%
    13:00 +1°C° 0 mm 2 mps 717 mmHg 59%
    14:00 +1°C° 0 mm 2 mps 717 mmHg 62%
    15:00 -1°C° 0 mm 2 mps 717 mmHg 66%
    16:00 -1°C° 0 mm 1 mps 716 mmHg 70%
    17:00 -2°C° 0 mm 1 mps 716 mmHg 75%
    18:00 -2°C° 0 mm 1 mps 716 mmHg 73%
    19:00 -2°C° 0 mm 1 mps 716 mmHg 70%
    20:00 -2°C° 0 mm 1 mps 716 mmHg 68%
    21:00 -3°C° 0 mm 1 mps 716 mmHg 67%
    22:00 -3°C° 0 mm 1 mps 716 mmHg 66%
    23:00 -3°C° 0 mm 1 mps 715 mmHg 65%

    17 November, Saturday

    Time Temperature Precipitation Wind Pressure Humidity
    00:00 -3°C° 0 mm 1 mps 715 mmHg 63%
    01:00 -3°C° 0 mm 1 mps 715 mmHg 61%
    02:00 -3°C° 0 mm 1 mps 714 mmHg 60%
    03:00 -3°C° 0 mm 1 mps 714 mmHg 57%
    04:00 -3°C° 0 mm 1 mps 714 mmHg 54%
    05:00 -4°C° 0 mm 2 mps 714 mmHg 52%
    06:00 -4°C° 0 mm 2 mps 713 mmHg 49%
    07:00 -4°C° 0 mm 2 mps 713 mmHg 47%
    08:00 -3°C° 0 mm 2 mps 713 mmHg 45%
    09:00 +1°C° 0 mm 1 mps 713 mmHg 46%
    10:00 +3°C° 0 mm 1 mps 713 mmHg 47%
    11:00 +5°C° 0 mm 1 mps 713 mmHg 48%
    12:00 +5°C° 0 mm 1 mps 712 mmHg 51%
    13:00 +5°C° 0 mm 1 mps 711 mmHg 54%
    14:00 +6°C° 0 mm 1 mps 711 mmHg 57%
    15:00 +4°C° 0 mm 1 mps 710 mmHg 57%
    16:00 +2°C° 0 mm 1 mps 710 mmHg 56%
    17:00 +1°C° 0 mm 1 mps 710 mmHg 56%
    18:00 +1°C° 0 mm 1 mps 710 mmHg 54%
    19:00 +1°C° 0 mm 1 mps 710 mmHg 51%
    20:00 +1°C° 0 mm 1 mps 710 mmHg 48%
    21:00 +1°C° 0 mm 1 mps 710 mmHg 47%
    22:00 +1°C° 0 mm 1 mps 709 mmHg 45%
    23:00 +1°C° 0 mm 1 mps 709 mmHg 43%

    18 November, Sunday

    Time Temperature Precipitation Wind Pressure Humidity
    00:00 +2°C° 0 mm 1 mps 709 mmHg 42%
    01:00 +2°C° 0 mm 1 mps 709 mmHg 40%
    02:00 +2°C° 0 mm 1 mps 709 mmHg 39%
    03:00 +2°C° 0 mm 1 mps 709 mmHg 38%
    04:00 +2°C° 0 mm 1 mps 709 mmHg 38%
    05:00 +2°C° 0 mm 1 mps 709 mmHg 37%
    06:00 +3°C° 0 mm 1 mps 709 mmHg 37%
    07:00 +3°C° 0 mm 1 mps 709 mmHg 37%
    08:00 +3°C° 0 mm 1 mps 709 mmHg 37%
    09:00 +4°C° 0 mm 1 mps 709 mmHg 42%
    10:00 +5°C° 0 mm 1 mps 710 mmHg 46%
    11:00 +7°C° 0 mm 1 mps 710 mmHg 50%
    12:00 +7°C° 0 mm 1 mps 710 mmHg 51%
    13:00 +7°C° 0 mm 1 mps 710 mmHg 52%
    14:00 +7°C° 0 mm 1 mps 710 mmHg 53%
    15:00 +5°C° 0 mm 1 mps 710 mmHg 52%
    16:00 +4°C° 0 mm 1 mps 710 mmHg 51%
    17:00 +2°C° 0 mm 1 mps 710 mmHg 50%
    18:00 +2°C° 0 mm 1 mps 710 mmHg 49%
    19:00 +2°C° 0 mm 1 mps 711 mmHg 48%
    20:00 +1°C° 0 mm 1 mps 711 mmHg 46%
    21:00 +1°C° 0 mm 1 mps 711 mmHg 46%
    22:00 +1°C° 0 mm 1 mps 711 mmHg 46%
    23:00 +1°C° 0 mm 1 mps 711 mmHg 45%

    19 November, Monday

    Time Temperature Precipitation Wind Pressure Humidity
    00:00 +1°C° 0 mm 1 mps 711 mmHg 45%
    01:00 +1°C° 0 mm 1 mps 711 mmHg 45%
    02:00 +1°C° 0 mm 1 mps 711 mmHg 45%
    03:00 +1°C° 0 mm 1 mps 711 mmHg 45%
    04:00 +1°C° 0 mm 1 mps 711 mmHg 45%
    05:00 -2°C° 0 mm 2 mps 710 mmHg 46%
    06:00 -1°C° 0 mm 2 mps 711 mmHg 46%
    07:00 -1°C° 0 mm 2 mps 711 mmHg 47%
    08:00 -1°C° 0 mm 2 mps 711 mmHg 47%
    09:00 +1°C° 0 mm 2 mps 711 mmHg 46%
    10:00 +4°C° 0 mm 1 mps 711 mmHg 46%
    11:00 +5°C° 0 mm 1 mps 711 mmHg 45%
    12:00 +6°C° 0 mm 1 mps 710 mmHg 48%
    13:00 +6°C° 0 mm 1 mps 710 mmHg 50%
    14:00 +5°C° 0 mm 2 mps 710 mmHg 52%
    15:00 +5°C° 0 mm 1 mps 709 mmHg 56%
    16:00 +3°C° 0 mm 1 mps 709 mmHg 61%
    17:00 +2°C° 0 mm 1 mps 709 mmHg 65%
    18:00 +2°C° 0 mm 1 mps 709 mmHg 63%
    19:00 +2°C° 0 mm 1 mps 709 mmHg 61%
    20:00 +2°C° 0 mm 1 mps 709 mmHg 59%
    21:00 +2°C° 0 mm 1 mps 709 mmHg 58%
    22:00 +2°C° 0 mm 1 mps 708 mmHg 57%
    23:00 +3°C° 0 mm 1 mps 708 mmHg 55%
    Show more